Location: Kelshall
(52.0000°N, 0.0500°W)
Time: 22:04:39
(UTC+00:00)

ATLAS 2AS CENTAUR R/B - Pass Details

Date: 24 January 2021
Orbit: 947 x 1265 km, 63.7° (Epoch: 13 February)

Event Time Altitude Azimuth Distance (km) Brightness Sun altitude
Rises 18:53:02 0° 278° (W) 4,221 7.3 -21.1°
Reaches altitude 10° 18:56:12 10° 287° (WNW) 3,241 6.2 -21.5°
Maximum altitude 19:03:18 35° 352° (N) 1,861 4.0 -22.6°
Enters shadow 19:06:55 24° 38° (NE) 2,269 4.0 -23.2°
